{"data":{"norad_id":69754,"epoch":"2026-09-20T00:29:33.151776Z","epoch_age_seconds":59180,"freshness":"FRESH","line1":"1 69754U 26150R   26263.02052259  .00015010  00000+0  46642-3 0  9990","line2":"2 69754  97.2834 101.9752 0001360  83.7242 276.4156 15.33440008 13662","mean_motion":15.33440008,"eccentricity":0.000136,"inclination_deg":97.2834,"raan_deg":101.9752,"arg_perigee_deg":83.7242,"mean_anomaly_deg":276.4156,"bstar":0.00046642,"rev_number":1366,"period_min":93.906510361506,"perigee_km":464.62728467455,"apogee_km":466.48876972195,"semimajor_km":6843.6950271983,"source":"CELESTRAK","updated_at":"2026-09-20T09:00:44.289184Z"}}